Flag for France Weather past 2 weeks in Grenoble, France

Now
57 °F

Clear.


Feels Like: 57 °F
Forecast: 49 / 70 °F
Wind: 3 mph from North

Location: Grenoble / St. Geoirs

Current Time: Sep 5, 2015 at 12:13:33 AM

Latest Report: Sep 4, 2015 at 11:30 PM


Visibility: 10 mi

Pressure: 30.04 "Hg

Humidity: 59%

Dew point: 43 °F

Location of GrenobleLocation

Historic Weather in Grenoble — Graph

°F

Grenoble temperature yesterday

Maximum temperature yesterday: 72 °F (at 3:30 PM)
Minimum temperature yesterday: 46 °F (at 4:30 AM)
Average temperature yesterday: 59 °F

Past Weeks' High & Low Weather Summary

 TemperatureHumidityPressure
High88 °F (Aug 29, 4:30 PM)100% (Aug 24, 5:00 AM)30.21 "Hg (Aug 24, 5:00 AM)
Low46 °F (Sep 4, 4:30 AM)25% (Aug 22, 5:00 PM)29.74 "Hg (Aug 24, 2:30 AM)
Average67 °F66%30.04 "Hg
* Reported Aug 20 11:00 PM — Sep 4 11:00 PM, Grenoble, Weather by CustomWeather, © 2015

Note: Actual official high and low records may vary slightly from our data, if they occured in-between our weather recording intervals... More about our weather records

Advertising

Grenoble weather history for previous 24 hours

 ConditionsComfort  
Time TempWeatherWind HumidityBarometerVisibility
11:00 PM
Fri, Sep 4
59 °FClear.2 mph51%30.04 "Hg10 mi
10:30 PM59 °FClear.3 mph51%30.04 "Hg10 mi
10:00 PM61 °FPassing clouds.5 mph48%30.04 "HgN/A
9:30 PM63 °FClear.9 mph45%30.01 "Hg10 mi
9:00 PM63 °FMostly cloudy.10 mph45%30.01 "HgN/A
8:30 PM63 °FOvercast.9 mph45%29.98 "HgN/A
8:00 PM64 °FScattered clouds.7 mph43%29.98 "HgN/A
7:30 PM66 °FPassing clouds.9 mph40%30.01 "HgN/A
7:00 PM66 °FScattered clouds.10 mph40%30.01 "HgN/A
6:30 PM68 °FPassing clouds.10 mph38%30.01 "HgN/A
6:00 PM70 °FPassing clouds.9 mph35%29.98 "HgN/A
5:30 PM72 °FScattered clouds.12 mph33%29.98 "HgN/A
5:00 PM72 °FScattered clouds.12 mph33%29.98 "HgN/A
4:30 PM72 °FScattered clouds.9 mph36%29.98 "HgN/A
4:00 PM70 °FPassing clouds.8 mph38%29.98 "HgN/A
3:30 PM72 °FPartly sunny.12 mph38%29.98 "HgN/A
3:00 PM70 °FPartly sunny.10 mph38%30.01 "HgN/A
2:30 PM68 °FPartly sunny.8 mph46%30.01 "HgN/A
2:00 PM70 °FPassing clouds.9 mph43%30.01 "HgN/A
1:30 PM68 °FPassing clouds.9 mph46%30.04 "HgN/A
1:00 PM68 °FPassing clouds.8 mph46%30.04 "HgN/A
12:30 PM66 °FPassing clouds.9 mph52%30.04 "HgN/A
12:00 PM66 °FPassing clouds.12 mph49%30.04 "HgN/A
11:30 AM64 °FPassing clouds.10 mph49%30.04 "HgN/A
11:00 AM64 °FPassing clouds.7 mph56%30.04 "HgN/A
10:30 AM63 °FSunny.2 mph68%30.04 "Hg10 mi
10:00 AM59 °FClear.1 mph77%30.04 "HgN/A
9:30 AM55 °FSunny.1 mph88%30.07 "Hg10 mi
9:00 AM54 °FSunny.No wind94%30.04 "Hg10 mi
8:30 AM52 °FSunny.No wind94%30.04 "Hg10 mi
8:00 AM48 °FClear.1 mph100%30.04 "Hg10 mi
7:30 AM46 °FClear.1 mph100%30.04 "Hg10 mi
7:00 AM46 °FPassing clouds.3 mph100%30.04 "HgN/A
6:30 AM46 °FClear.No wind93%30.04 "Hg10 mi
6:00 AM46 °FPassing clouds.5 mph93%30.04 "HgN/A
5:30 AM46 °FClear.3 mph93%30.04 "Hg10 mi
5:00 AM46 °FClear.2 mph100%30.04 "Hg10 mi
4:30 AM46 °FClear.3 mph100%30.04 "Hg10 mi
4:00 AM48 °FClear.2 mph94%30.04 "Hg6 mi
3:30 AM48 °FClear.3 mph100%30.04 "Hg10 mi
3:00 AM50 °FClear.3 mph94%30.04 "Hg10 mi
2:30 AM50 °FPassing clouds.5 mph94%30.04 "HgN/A
2:00 AM50 °FClear.3 mph94%30.04 "Hg10 mi
1:30 AM50 °FClear.3 mph94%30.04 "Hg10 mi
1:00 AM52 °FClear.3 mph100%30.04 "Hg10 mi
12:30 AM52 °FClear.5 mph94%30.04 "Hg10 mi
Weather by CustomWeather, © 2015

See weather overviewHow to use our weather pages